Weather History for KCRS - November, 2012

Change the Weather History Date:

Friday, November 9, 2012

  Actual Average (KACT) Record (KACT)
Temperature  
Mean Temperature 71 °F 60 °F  
Max Temperature 82 °F 71 °F 89 °F (1980)
Min Temperature 60 °F 49 °F 28 °F (1938)
Degree Days  
Heating Degree Days 0 7  
Month to date heating degree days 50  
Since 1 July heating degree days 117  
Cooling Degree Days 6 2  
Month to date cooling degree days 20  
Year to date cooling degree days 2776  
Growing Degree Days 21 (Base 50)    
Moisture  
Dew Point 58 °F    
Average Humidity 68    
Maximum Humidity 93    
Minimum Humidity 41    
Precipitation  
Precipitation 0.00 in 0.10 in 2.01 in (1905)
Month to date precipitation 0.94  
Year to date precipitation 30.06  
Snow  
Snow 0.00 in 0.00 in 0.00 in ()
Month to date snowfall 0.0  
Since 1 July snowfall 0.0  
Since 1 September snowfall 0.0  
Snow Depth -    
Sea Level Pressure  
Sea Level Pressure 30.04 in    
Wind  
Wind Speed 13 mph (SSE)    
Max Wind Speed 23 mph    
Max Gust Speed 32 mph    
Visibility 10 miles    
Events      
T = Trace of Precipitation, MM = Missing Value Source: NWS Daily Summary

Daily Weather History Graph

Daily Weather History Graph

Search for Another Location

Airport or City:

Trip Planner

Search our weather history database for the weather conditions in past years. The results will help you decide how hot, cold, wet, or windy it might be!

Date:

Astronomy

Nov. 09, 2012 Rise Set
Actual Time 6:49 AM CST 5:29 PM CST
Civil Twilight 6:23 AM CST 5:54 PM CST
Nautical Twilight 5:54 AM CST 6:23 PM CST
Astronomical Twilight 5:25 AM CST 6:52 PM CST
Moon 2:05 AM CST (11/9) 2:28 PM CST (11/9)
Length of Visible Light 11h 30m
Length of Day
10h 39m
Waning Crescent, 23% of the Moon is Illuminated
Nov 9
Waning Crescent
Nov 13
New
Nov 20
First Quarter
Nov 28
Full
Dec 6
Last Quarter

Hourly Weather History & Observations

Time (CST) Temp. Heat Index Dew Point Humidity Pressure Visibility Wind Dir Wind Speed Gust Speed Precip Events Conditions
12:53 AM 64.9 °F - 57.9 °F 78% 30.05 in 10.0 mi South 13.8 mph - N/A   Clear
1:53 AM 64.0 °F - 57.9 °F 80% 30.05 in 10.0 mi South 10.4 mph - N/A   Clear
2:53 AM 63.0 °F - 57.9 °F 84% 30.05 in 10.0 mi SSE 9.2 mph - N/A   Clear
3:53 AM 61.0 °F - 57.9 °F 90% 30.04 in 10.0 mi SE 10.4 mph - N/A   Clear
4:41 AM 60.8 °F - 57.2 °F 88% 30.06 in 10.0 mi SSE 9.2 mph - N/A   Mostly Cloudy
4:53 AM 61.0 °F - 57.9 °F 90% 30.06 in 10.0 mi SSE 8.1 mph - N/A   Overcast
5:12 AM 60.8 °F - 57.2 °F 88% 30.06 in 10.0 mi SSE 9.2 mph - N/A   Mostly Cloudy
5:53 AM 60.1 °F - 57.9 °F 93% 30.06 in 10.0 mi SE 9.2 mph - N/A   Mostly Cloudy
6:53 AM 60.1 °F - 57.9 °F 93% 30.06 in 8.0 mi SSE 10.4 mph - N/A   Scattered Clouds
7:53 AM 61.0 °F - 59.0 °F 93% 30.08 in 9.0 mi SSE 8.1 mph - N/A   Mostly Cloudy
8:53 AM 66.0 °F - 60.1 °F 81% 30.09 in 10.0 mi SSE 15.0 mph - N/A   Clear
9:53 AM 70.0 °F - 61.0 °F 73% 30.08 in 10.0 mi South 17.3 mph 25.3 mph N/A   Partly Cloudy
10:34 AM 75.2 °F - 62.6 °F 65% 30.09 in 10.0 mi South 21.9 mph 29.9 mph N/A   Mostly Cloudy
10:53 AM 75.0 °F - 62.1 °F 64% 30.07 in 10.0 mi South 23.0 mph 29.9 mph N/A   Mostly Cloudy
11:00 AM 75.2 °F - 62.6 °F 65% 30.08 in 10.0 mi South 19.6 mph 31.1 mph N/A   Mostly Cloudy
11:27 AM 75.2 °F - 62.6 °F 65% 30.07 in 10.0 mi South 18.4 mph 26.5 mph N/A   Mostly Cloudy
11:53 AM 80.1 °F 81.5 °F 63.0 °F 56% 30.05 in 10.0 mi South 16.1 mph 24.2 mph N/A   Mostly Cloudy
12:53 PM 81.0 °F 81.3 °F 59.0 °F 47% 30.01 in 10.0 mi South 18.4 mph 32.2 mph N/A   Partly Cloudy
1:53 PM 82.0 °F 81.7 °F 57.0 °F 42% 29.98 in 10.0 mi SSW 23.0 mph 31.1 mph N/A   Clear
2:53 PM 82.9 °F 82.4 °F 57.0 °F 41% 29.97 in 10.0 mi South 16.1 mph 29.9 mph N/A   Partly Cloudy
3:53 PM 82.0 °F 81.7 °F 57.0 °F 42% 29.96 in 10.0 mi South 15.0 mph - N/A   Clear
4:53 PM 80.1 °F 80.1 °F 55.0 °F 42% 29.96 in 10.0 mi South 15.0 mph - N/A   Clear
5:53 PM 77.0 °F - 54.0 °F 45% 29.97 in 10.0 mi South 15.0 mph - N/A   Clear
6:53 PM 72.0 °F - 53.1 °F 51% 29.99 in 10.0 mi SSE 11.5 mph - N/A   Clear
7:53 PM 73.9 °F - 53.1 °F 48% 30.00 in 10.0 mi South 17.3 mph - N/A   Clear
8:53 PM 71.1 °F - 53.1 °F 53% 30.02 in 10.0 mi SSE 12.7 mph - N/A   Clear
9:53 PM 66.9 °F - 55.0 °F 66% 30.03 in 10.0 mi SSE 11.5 mph - N/A   Clear
10:53 PM 66.0 °F - 57.0 °F 73% 30.04 in 10.0 mi SSE 10.4 mph - N/A   Clear
11:53 PM 66.0 °F - 57.9 °F 75% 30.04 in 10.0 mi SSE 12.7 mph - N/A   Clear